Time,TemperatureF,DewpointF,PressureIn,WindDirection,WindDirectionDegrees,WindSpeedMPH,WindSpeedGustMPH,Humidity,HourlyPrecipIn,Conditions,Clouds,dailyrainin,SoftwareType,DateUTC
2013-05-08 00:03:00,52.3,42.0,30.11,WSW,257,0.0,-999.0,69,-99.99,,,0.00,weatherlink.com 1.10,2013-05-08 07:03:00,
2013-05-08 00:17:00,52.8,43.0,30.11,WSW,257,0.0,-999.0,69,-99.99,,,0.00,weatherlink.com 1.10,2013-05-08 07:17:00,
2013-05-08 00:33:00,53.5,41.0,30.11,WSW,257,0.0,-999.0,64,-99.99,,,0.00,weatherlink.com 1.10,2013-05-08 07:33:00,
2013-05-08 00:48:00,53.9,41.0,30.11,WSW,257,0.0,-999.0,61,-99.99,,,0.00,weatherlink.com 1.10,2013-05-08 07:48:00,
2013-05-08 01:03:00,53.8,40.0,30.10,WSW,257,0.0,-999.0,59,-99.99,,,0.00,weatherlink.com 1.10,2013-05-08 08:03:00,
2013-05-08 01:18:00,53.9,43.0,30.11,WSW,257,0.0,-999.0,66,-99.99,,,0.00,weatherlink.com 1.10,2013-05-08 08:18:00,
2013-05-08 01:33:00,53.3,44.0,30.11,WSW,257,0.0,-999.0,70,-99.99,,,0.00,weatherlink.com 1.10,2013-05-08 08:33:00,
2013-05-08 01:48:00,52.9,43.0,30.11,WSW,257,0.0,-999.0,70,-99.99,,,0.00,weatherlink.com 1.10,2013-05-08 08:48:00,
2013-05-08 02:03:00,52.3,42.0,30.11,WSW,257,0.0,-999.0,67,-99.99,,,0.00,weatherlink.com 1.10,2013-05-08 09:03:00,
2013-05-08 02:18:00,51.8,41.0,30.11,WSW,257,0.0,-999.0,68,-99.99,,,0.00,weatherlink.com 1.10,2013-05-08 09:18:00,
2013-05-08 02:33:00,51.3,42.0,30.10,WSW,257,0.0,-999.0,71,-99.99,,,0.00,weatherlink.com 1.10,2013-05-08 09:33:00,
2013-05-08 02:48:00,50.9,43.0,30.10,WSW,257,0.0,-999.0,73,-99.99,,,0.00,weatherlink.com 1.10,2013-05-08 09:48:00,
2013-05-08 03:03:00,50.8,42.0,30.10,WSW,257,0.0,-999.0,73,-99.99,,,0.00,weatherlink.com 1.10,2013-05-08 10:03:00,
2013-05-08 03:18:00,51.0,43.0,30.11,WSW,257,0.0,-999.0,74,-99.99,,,0.00,weatherlink.com 1.10,2013-05-08 10:18:00,
2013-05-08 03:33:00,51.2,44.0,30.11,WSW,257,0.0,-999.0,75,-99.99,,,0.00,weatherlink.com 1.10,2013-05-08 10:33:00,
2013-05-08 03:48:00,50.9,43.0,30.11,WSW,257,1.0,-999.0,75,-99.99,,,0.00,weatherlink.com 1.10,2013-05-08 10:48:00,
2013-05-08 04:03:00,50.6,43.0,30.11,WSW,257,0.0,-999.0,75,-99.99,,,0.00,weatherlink.com 1.10,2013-05-08 11:03:00,
2013-05-08 04:18:00,50.4,43.0,30.11,WSW,257,0.0,-999.0,75,-99.99,,,0.00,weatherlink.com 1.10,2013-05-08 11:18:00,
2013-05-08 04:33:00,50.1,42.0,30.12,WSW,257,0.0,-999.0,75,-99.99,,,0.00,weatherlink.com 1.10,2013-05-08 11:33:00,
2013-05-08 04:48:00,50.3,43.0,30.12,WSW,257,0.0,-999.0,76,-99.99,,,0.00,weatherlink.com 1.10,2013-05-08 11:48:00,
2013-05-08 05:03:00,49.9,43.0,30.12,WSW,257,0.0,-999.0,76,-99.99,,,0.00,weatherlink.com 1.10,2013-05-08 12:03:00,
2013-05-08 05:18:00,50.1,43.0,30.12,WSW,257,0.0,-999.0,76,-99.99,,,0.00,weatherlink.com 1.10,2013-05-08 12:18:00,
2013-05-08 05:33:00,50.3,43.0,30.12,WSW,257,0.0,-999.0,77,-99.99,,,0.00,weatherlink.com 1.10,2013-05-08 12:33:00,
2013-05-08 05:48:00,50.4,43.0,30.12,WSW,257,0.0,-999.0,77,-99.99,,,0.00,weatherlink.com 1.10,2013-05-08 12:48:00,
2013-05-08 06:03:00,50.4,43.0,30.12,WSW,257,0.0,-999.0,76,-99.99,,,0.00,weatherlink.com 1.10,2013-05-08 13:03:00,
2013-05-08 06:18:00,50.4,43.0,30.12,WSW,257,0.0,-999.0,76,-99.99,,,0.00,weatherlink.com 1.10,2013-05-08 13:18:00,
2013-05-08 06:33:00,50.5,43.0,30.13,WSW,257,0.0,-999.0,76,-99.99,,,0.00,weatherlink.com 1.10,2013-05-08 13:33:00,
2013-05-08 06:48:00,50.5,43.0,30.13,WSW,257,0.0,-999.0,75,-99.99,,,0.00,weatherlink.com 1.10,2013-05-08 13:48:00,
2013-05-08 07:03:00,50.6,43.0,30.14,WSW,257,0.0,-999.0,75,-99.99,,,0.00,weatherlink.com 1.10,2013-05-08 14:03:00,
2013-05-08 07:18:00,50.8,44.0,30.14,WSW,257,0.0,-999.0,76,-99.99,,,0.00,weatherlink.com 1.10,2013-05-08 14:18:00,
2013-05-08 07:33:00,51.7,44.0,30.14,WSW,257,0.0,-999.0,76,-99.99,,,0.00,weatherlink.com 1.10,2013-05-08 14:33:00,
2013-05-08 07:48:00,53.0,45.0,30.14,WSW,257,0.0,-999.0,74,-99.99,,,0.00,weatherlink.com 1.10,2013-05-08 14:48:00,
2013-05-08 08:03:00,54.0,45.0,30.14,WSW,257,0.0,-999.0,71,-99.99,,,0.00,weatherlink.com 1.10,2013-05-08 15:03:00,
2013-05-08 08:18:00,54.7,45.0,30.14,WSW,257,0.0,-999.0,69,-99.99,,,0.00,weatherlink.com 1.10,2013-05-08 15:18:00,
2013-05-08 08:33:00,55.4,45.0,30.15,WSW,257,0.0,-999.0,69,-99.99,,,0.00,weatherlink.com 1.10,2013-05-08 15:33:00,
2013-05-08 08:48:00,54.5,45.0,30.15,WSW,257,0.0,-999.0,71,-99.99,,,0.00,weatherlink.com 1.10,2013-05-08 15:48:00,
2013-05-08 09:02:00,53.9,45.0,30.15,WSW,257,0.0,-999.0,72,-99.99,,,0.00,weatherlink.com 1.10,2013-05-08 16:02:00,
2013-05-08 09:17:00,54.5,46.0,30.15,WSW,257,0.0,-999.0,73,-99.99,,,0.00,weatherlink.com 1.10,2013-05-08 16:17:00,
2013-05-08 09:32:00,55.3,47.0,30.16,WSW,257,0.0,-999.0,73,-99.99,,,0.00,weatherlink.com 1.10,2013-05-08 16:32:00,
2013-05-08 09:47:00,55.0,46.0,30.16,WSW,257,0.0,-999.0,72,-99.99,,,0.00,weatherlink.com 1.10,2013-05-08 16:47:00,
2013-05-08 10:02:00,54.6,46.0,30.16,WSW,257,0.0,-999.0,74,-99.99,,,0.00,weatherlink.com 1.10,2013-05-08 17:02:00,